SCP
0 0 0 0 0 0 0 0 0 0 0 0 0 0 0 0 0 0 0 0 0 0 0 0 0 0 0 0 0 0 0 0
0 0 0 0 0 0 0 0 0 0 0 0 0 0 0 0 0 0 0 0 0 0 0 0 0 0 0 0 0 0 0 0
0 0 0 0 0 0 0 0 0 0 0 0 0 0 0 0 0 0 0 0 0 0 0 0 0 0 0 0 0 0 0 0
0 0 0 0 0 0 0 0 0 0 0 0 0 0 0 0 0 0 0 0 0 0 0 0 0 0 0 0 0 0 0 0
0 0 0 0 0 0 0 0 0 0 0 0 0 0 0 0 0 0 0 0 0 0 0 0 0 0 0 0 0 0 0 0
0 0 0 0 0 0 0 0 0 0 0 0 0 0 0 0 0 0 0 0 0 0 0 0 0 0 0 0 0 0 0 0
-0 0 0 0 0 0 0 0 0 0 0 0 0 0 0 0 0 0 0 0 0 0 0 0 0 0 0 0 0 0 0 0
-0 0 0 0 0 0 0 0 0 0 0 0 0 0 0 0 0 0 0 0 0 0 0 0 0 0 0 0 0 0 0 0
-0 -0 0 0 0 0 0 0 0 0 0 0 0 0 0 0 0 0 0 0 0 0 0 0 0 0 0 0 0 0 0 0
0 0 0 0 0 0 0 0 0 0 0 0 0 0 0 0 0 0 0 0 0 0 0 0 0 0 0 0 0 0 0 0
-0 -0 0 0 0 0 0 0 0 0 0 0 0 0 0 0 0 0 0 0 0 0 0 0 0 0 0 0 0 0 0 0
-0 -0 0 0 0 0 0 0 0 0 0 0 0 0 0 0 0 0 0 0 0 0 0 0 0 0 0 0 0 0 0 0
0 0 -0 -0 -0 -0 0 0 0 0 0 0 0 0 0 0 0 0 0 0 0 0 0 0 0 0 0 0 0 0 0 0
-0 -0 -0 -0 -0 -0 -0 -0 0 0 0 0 0 0 0 0 0 0 0 0 0 0 0 0 0 0 0 0 0 0 0 0
-0 -0 0 0 -0 -0 -0 -0 0 0 0 0 0 0 0 0 0 0 0 0 0 0 0 0 0 0 0 0 0 0 0 0
-0 0 -0 -0 -0 -0 -0 -0 0 0 0 0 0 0 0 0 0 0 0 0 0 0 0 0 0 0 0 0 0 0 0 0
-0 -0 -0 -0 -0 -0 -0 -0 -0 0 0 0 0 0 0 0 0 0 0 0 0 0 0 0 0 0 0 0 0 0 0 0
-0 -0 -0 -0 -0 -0 -0 -0 -0 -0 0 0 0 0 0 0 0 0 0 0 0 0 0 0 0 0 0 0 0 0 0 0
0 -0 -0 -0 -0 -0 0 0 0 0 0 0 0 0 0 0 0 0 0 0 0 0 0 0 0 0 0 0 0 0 0 0
0 0 0 0 0 0 0 0 0 0 0 0 0 0 0 0 0 0 0 0 0 0 0 0 0 0 0 0 0 0 0 0
Wind_Speed_500mb
31 21 16 15 15 22 37 48 49 58 58 60 66 72 77 81 81 76 74 77 80 81 93 97 96 94 88 86 83 80 83 81
37 34 28 18 11 14 25 41 44 45 51 52 54 54 60 68 74 78 74 72 74 70 74 79 87 92 91 90 85 83 82 82
43 41 37 30 15 9 16 26 31 40 46 50 53 52 62 64 61 60 65 69 73 63 65 68 74 80 87 92 91 85 86 86
51 52 43 32 26 14 10 12 14 24 33 41 47 52 58 55 58 58 62 69 70 73 66 67 68 66 73 80 84 87 88 91
58 53 46 41 39 28 22 12 2 13 21 28 33 42 51 57 55 53 56 64 69 66 69 71 75 77 74 75 82 83 83 83
54 49 39 41 38 37 36 21 8 1 9 14 19 32 42 48 53 55 63 61 58 65 65 67 68 69 71 72 75 77 81 86
45 42 42 38 35 36 32 24 19 17 11 2 10 16 36 37 43 46 49 51 55 53 58 60 68 69 66 70 69 70 76 81
38 37 38 38 35 31 30 22 25 25 23 15 6 7 16 30 42 41 41 45 51 51 55 64 70 72 68 69 67 65 67 73
33 35 36 35 34 31 28 27 26 22 20 18 14 9 2 9 19 31 41 42 46 51 53 56 57 57 60 61 63 63 66 70
35 35 36 39 37 33 31 29 26 25 22 19 16 13 11 5 5 14 22 28 37 41 46 51 54 55 56 56 61 63 65 65
35 37 38 38 35 32 32 30 30 28 26 22 17 13 10 8 6 1 7 16 24 32 39 44 47 50 54 56 59 61 65 66
37 40 39 37 36 37 34 34 32 27 24 20 17 14 11 8 5 3 2 1 7 14 22 30 37 42 46 50 53 55 56 58
34 35 36 35 35 35 33 31 28 26 24 21 17 14 12 10 8 6 5 4 3 3 7 12 18 21 28 32 32 36 40 46
30 32 35 35 32 28 28 27 24 22 21 21 20 18 14 11 9 8 7 8 9 8 7 7 12 19 26 28 27 29 32 33
28 34 36 34 32 29 27 24 24 24 20 18 18 16 15 15 12 8 6 8 10 12 13 15 16 20 24 21 20 21 24 28
32 36 38 36 34 32 29 24 21 20 20 19 17 16 14 12 11 12 9 8 8 10 13 18 23 28 28 27 26 26 28 32
29 34 37 35 32 30 27 26 25 22 21 19 18 16 14 13 10 9 10 11 10 10 10 13 18 25 33 37 32 28 26 32
31 37 38 32 26 24 24 26 26 23 23 23 20 18 17 14 12 8 7 8 9 10 11 11 13 17 24 31 37 29 31 32
30 36 39 34 29 29 27 27 27 26 24 26 25 22 17 18 14 11 10 7 8 8 10 11 12 13 14 20 29 32 41 34
32 37 40 36 31 31 29 28 29 29 26 24 26 28 24 19 20 18 13 11 10 9 6 11 17 13 15 19 38 41 36 32
Wind_Direction_500mb
55 69 85 144 172 179 189 196 197 204 210 213 221 230 234 238 234 235 236 237 236 236 235 232 233 232 233 234 239 236 239 238
65 61 65 91 132 155 165 179 187 196 207 215 221 221 224 233 238 242 243 240 238 237 238 239 238 237 235 236 239 239 237 240
67 63 57 58 58 100 135 165 184 199 207 213 218 226 232 233 238 238 238 240 243 240 238 240 241 240 238 236 238 240 239 237
64 72 69 64 61 51 95 138 198 218 221 216 216 223 232 236 234 237 239 241 239 243 237 237 234 233 234 236 238 239 238 239
51 54 56 56 60 63 68 58 322 238 230 229 226 220 224 234 234 230 238 238 240 237 232 234 239 240 240 239 238 236 237 238
51 51 49 53 54 63 61 47 36 312 227 225 232 220 218 226 232 231 229 231 238 239 239 237 238 239 240 243 245 241 241 242
48 52 52 51 54 65 73 71 72 73 81 161 222 231 226 224 225 225 227 228 229 229 236 239 236 237 238 240 245 244 243 244
44 48 52 50 54 65 68 62 64 67 68 65 80 219 228 233 238 237 232 231 230 232 231 232 234 234 237 240 242 245 245 245
49 51 52 56 57 59 62 60 58 60 61 62 59 60 135 215 228 234 236 234 230 231 232 235 237 239 241 241 242 243 245 245
49 51 50 51 49 48 53 53 53 51 48 49 51 50 56 78 188 223 227 232 232 232 233 236 237 238 240 240 241 242 245 246
52 54 55 53 50 48 48 48 48 42 36 30 25 26 26 39 53 64 222 226 226 229 233 235 235 233 235 236 237 239 239 241
49 50 49 45 42 42 42 42 37 31 27 20 14 12 7 356 348 357 18 217 222 225 227 230 231 228 228 229 233 236 239 239
43 40 37 33 31 32 31 30 25 24 18 14 11 9 359 348 334 307 285 269 254 234 223 220 217 211 205 219 231 235 236 239
39 29 21 14 12 13 14 13 13 11 8 6 8 4 359 353 336 318 296 269 258 256 249 229 199 186 199 219 229 228 237 237
30 23 16 6 359 357 352 350 352 355 351 355 354 356 358 351 346 332 305 284 265 246 236 229 220 204 206 208 212 219 220 224
17 12 8 1 354 353 350 344 332 329 336 336 338 345 342 344 342 329 316 291 271 262 248 232 224 222 218 219 218 212 208 200
4 360 360 359 350 349 348 348 342 327 313 318 317 320 324 328 324 324 315 294 276 266 258 246 235 223 218 215 220 223 220 206
353 351 350 352 344 344 342 344 344 337 317 298 298 300 303 308 310 315 310 301 279 262 251 241 233 223 218 212 207 212 212 211
342 343 342 343 339 340 335 332 331 331 325 308 288 287 286 282 290 294 288 291 286 263 247 231 205 187 186 202 190 195 210 219
335 336 332 333 330 327 323 318 315 312 307 309 302 283 277 272 267 271 275 275 261 248 230 192 170 165 168 179 187 192 197 204
Wind_Speed_850mb
31 21 16 15 15 22 37 48 49 58 58 60 66 72 77 81 81 76 74 77 80 81 93 97 96 94 88 86 83 80 83 81
37 34 28 18 11 14 25 41 44 45 51 52 54 54 60 68 74 78 74 72 74 70 74 79 87 92 91 90 85 83 82 82
43 41 37 30 15 9 16 26 31 40 46 50 53 52 62 64 61 60 65 69 73 63 65 68 74 80 87 92 91 85 86 86
51 52 43 32 26 14 10 12 14 24 33 41 47 52 58 55 58 58 62 69 70 73 66 67 68 66 73 80 84 87 88 91
58 53 46 41 39 28 22 12 2 13 21 28 33 42 51 57 55 53 56 64 69 66 69 71 75 77 74 75 82 83 83 83
54 49 39 41 38 37 36 21 8 1 9 14 19 32 42 48 53 55 63 61 58 65 65 67 68 69 71 72 75 77 81 86
45 42 42 38 35 36 32 24 19 17 11 2 10 16 36 37 43 46 49 51 55 53 58 60 68 69 66 70 69 70 76 81
38 37 38 38 35 31 30 22 25 25 23 15 6 7 16 30 42 41 41 45 51 51 55 64 70 72 68 69 67 65 67 73
33 35 36 35 34 31 28 27 26 22 20 18 14 9 2 9 19 31 41 42 46 51 53 56 57 57 60 61 63 63 66 70
35 35 36 39 37 33 31 29 26 25 22 19 16 13 11 5 5 14 22 28 37 41 46 51 54 55 56 56 61 63 65 65
35 37 38 38 35 32 32 30 30 28 26 22 17 13 10 8 6 1 7 16 24 32 39 44 47 50 54 56 59 61 65 66
37 40 39 37 36 37 34 34 32 27 24 20 17 14 11 8 5 3 2 1 7 14 22 30 37 42 46 50 53 55 56 58
34 35 36 35 35 35 33 31 28 26 24 21 17 14 12 10 8 6 5 4 3 3 7 12 18 21 28 32 32 36 40 46
30 32 35 35 32 28 28 27 24 22 21 21 20 18 14 11 9 8 7 8 9 8 7 7 12 19 26 28 27 29 32 33
28 34 36 34 32 29 27 24 24 24 20 18 18 16 15 15 12 8 6 8 10 12 13 15 16 20 24 21 20 21 24 28
32 36 38 36 34 32 29 24 21 20 20 19 17 16 14 12 11 12 9 8 8 10 13 18 23 28 28 27 26 26 28 32
29 34 37 35 32 30 27 26 25 22 21 19 18 16 14 13 10 9 10 11 10 10 10 13 18 25 33 37 32 28 26 32
31 37 38 32 26 24 24 26 26 23 23 23 20 18 17 14 12 8 7 8 9 10 11 11 13 17 24 31 37 29 31 32
30 36 39 34 29 29 27 27 27 26 24 26 25 22 17 18 14 11 10 7 8 8 10 11 12 13 14 20 29 32 41 34
32 37 40 36 31 31 29 28 29 29 26 24 26 28 24 19 20 18 13 11 10 9 6 11 17 13 15 19 38 41 36 32
Wind_Direction_850mb
55 69 85 144 172 179 189 196 197 204 210 213 221 230 234 238 234 235 236 237 236 236 235 232 233 232 233 234 239 236 239 238
65 61 65 91 132 155 165 179 187 196 207 215 221 221 224 233 238 242 243 240 238 237 238 239 238 237 235 236 239 239 237 240
67 63 57 58 58 100 135 165 184 199 207 213 218 226 232 233 238 238 238 240 243 240 238 240 241 240 238 236 238 240 239 237
64 72 69 64 61 51 95 138 198 218 221 216 216 223 232 236 234 237 239 241 239 243 237 237 234 233 234 236 238 239 238 239
51 54 56 56 60 63 68 58 322 238 230 229 226 220 224 234 234 230 238 238 240 237 232 234 239 240 240 239 238 236 237 238
51 51 49 53 54 63 61 47 36 312 227 225 232 220 218 226 232 231 229 231 238 239 239 237 238 239 240 243 245 241 241 242
48 52 52 51 54 65 73 71 72 73 81 161 222 231 226 224 225 225 227 228 229 229 236 239 236 237 238 240 245 244 243 244
44 48 52 50 54 65 68 62 64 67 68 65 80 219 228 233 238 237 232 231 230 232 231 232 234 234 237 240 242 245 245 245
49 51 52 56 57 59 62 60 58 60 61 62 59 60 135 215 228 234 236 234 230 231 232 235 237 239 241 241 242 243 245 245
49 51 50 51 49 48 53 53 53 51 48 49 51 50 56 78 188 223 227 232 232 232 233 236 237 238 240 240 241 242 245 246
52 54 55 53 50 48 48 48 48 42 36 30 25 26 26 39 53 64 222 226 226 229 233 235 235 233 235 236 237 239 239 241
49 50 49 45 42 42 42 42 37 31 27 20 14 12 7 356 348 357 18 217 222 225 227 230 231 228 228 229 233 236 239 239
43 40 37 33 31 32 31 30 25 24 18 14 11 9 359 348 334 307 285 269 254 234 223 220 217 211 205 219 231 235 236 239
39 29 21 14 12 13 14 13 13 11 8 6 8 4 359 353 336 318 296 269 258 256 249 229 199 186 199 219 229 228 237 237
30 23 16 6 359 357 352 350 352 355 351 355 354 356 358 351 346 332 305 284 265 246 236 229 220 204 206 208 212 219 220 224
17 12 8 1 354 353 350 344 332 329 336 336 338 345 342 344 342 329 316 291 271 262 248 232 224 222 218 219 218 212 208 200
4 360 360 359 350 349 348 348 342 327 313 318 317 320 324 328 324 324 315 294 276 266 258 246 235 223 218 215 220 223 220 206
353 351 350 352 344 344 342 344 344 337 317 298 298 300 303 308 310 315 310 301 279 262 251 241 233 223 218 212 207 212 212 211
342 343 342 343 339 340 335 332 331 331 325 308 288 287 286 282 290 294 288 291 286 263 247 231 205 187 186 202 190 195 210 219
335 336 332 333 330 327 323 318 315 312 307 309 302 283 277 272 267 271 275 275 261 248 230 192 170 165 168 179 187 192 197 204